Location: Appeville
(49.3218°N, 1.3427°W)
Time: 07:16:54
(UTC+00:00)

Cosmos 1536 - Pass Details

Date: 08 December 2019
Orbit: 540 x 559 km, 82.5° (Epoch: 17 January)

Event Time Altitude Azimuth Distance (km) Brightness Sun altitude
Rises 06:58:44 0° 186° (S) 2,735 6.7 -7.6°
Reaches altitude 10° 07:00:54 10° 185° (S) 1,844 5.8 -7.3°
Maximum altitude 07:04:58 83° 99° (E) 571 3.0 -6.7°
Drops below altitude 10° 07:09:04 10° 11° (NNE) 1,857 5.4 -6.1°
Sets 07:11:14 0° 11° (N) 2,756 6.2 -5.8°
